150  
ASUS44 KLIX 270913  
RWRLIX  
NEW ORLEANS REGIONAL WEATHER ROUNDUP  
NATIONAL WEATHER SERVICE NEW ORLEANS LA  
400 AM CDT SAT MAY 27 2017  
 
NOTE: "FAIR" INDICATES FEW OR NO CLOUDS BELOW 12,000 FEET WITH NO  
SIGNIFICANT WEATHER AND/OR S TO VISIBILITY
.  
SKY/WX - SKY CONDITION AND SIGNIFICANT WEATHER.  
TMP - AIR TEMPERATURE. DP - DEWPOINT TEMPERATURE.  
RH - RELATIVE HUMIDITY. PRES - PRESSURE.  
HI - HEAT INDEX. WCI - WIND CHILL INDEX.  
 
* THESE STATIONS ARE NOT NWS OR FAA STATIONS AND ARE NOT UNDER  
NWS QUALITY CONTROL.  
 
LAZ038-040-048-061>063-065>067-069-271000-  
SOUTHEAST LOUISIANA  
 
CITY SKY/WX TMP DP RH WIND PRES REMARKS
 
N.O. INTL ARPT CLOUDY 77 75 93 S7 29.96S  
N.O. LAKEFRONT CLOUDY 77 74 90 S12 29.97S  
N.O. DOWNTOWN* N/A 79 74 84 S8 N/A  
RESERVE* CLOUDY 78 75 91 SE5 29.96S  
SLIDELL CLOUDY 77 74 90 S7 29.96S  
BATON ROUGE CLOUDY 77 73 87 S10 29.94S  
BOOTHVILLE CLOUDY 78 76 93 S10 29.98S  
BELLE CHASSE CLOUDY N/A N/A N/A S8 29.97R  
BOGALUSA* CLOUDY 74 71 88 S7 29.98S  
GALLIANO* CLOUDY 77 73 86 S8 29.97S  
NEW ROADS* CLOUDY 76 73 93 S6 29.94S  
GONZALES* CLOUDY 76 74 93 S6 29.94S  
HAMMOND* CLOUDY 75 72 88 S6 29.96R  
HOUMA* NOT AVBL  
PORT FOURCHON* CLOUDY 79 75 89 S12G17 29.97S  
 

 
 
MSZ070-080>082-271000-  
SOUTHERN MISSISSIPPI  
 
CITY SKY/WX TMP DP RH WIND PRES REMARKS
 
MCCOMB CLOUDY 73 69 87 SW5 29.97R  
GULFPORT CLOUDY 77 74 90 VRB7 29.97S  
BILOXI CLOUDY 77 73 89 SW13 29.97S  
PASCAGOULA CLOUDY 76 71 85 S5 29.98S  
 

 
 
COASTAL OBSERVATIONS  
LAKE AND NEARSHORE STATIONS  
 
STATION/POSITION TIME TEMP WIND PRES WAVE
 
AIR SEA DIR/SP/G HT/PER  
(UTC) (F) (DEG/KT/KT) (MB) (FT/S)  
PASCAGOULA 0848 77 230/ 13/ 15 1015.0  
WAVELAND YACHT 0848 76 78 220/ 5/ 10 1015.0  
GRAND ISLE 0848 78 79 190/ 6/ 12 1014.8  
SOUTHWEST PASS 0848 180/ 12/ 16 N/A  
NEW CANAL 0848 78 79 200/ 6/ 11 1014.6  
SHELL BEACH 0848 77 80 200/ 9/ 10 1015.1  
 
OFFSHORE STATIONS  
 
STATION/POSITION TIME TEMP WIND PRES WAVE
 
AIR SEA DIR/SP/G HT/PER  
(UTC) (F) (DEG/KT/KT) (MB) (FT/S)  
64 S DAUPHIN ISL 0850 77 78 180/ 14/ 16 1015.4 3/ 4  
 

 
 
 
 
CLICK HERE TO GO TO PREVIOUS BULLETINS.

The Nexlab LA Page
The Nexlab MS Page Main Text Page